Вернуться в каталог

SL-8 DEB

АктивенLEO
NORAD 27744·DEBRIS·🇷🇺 Russia

Запущен Feb 12, 1991 с Plesetsk Cosmodrome

Loading…

Ближайшие Пролёты (ближайшие 24 часа)

TLE

СвежийSource: Space-Track

Эпоха: Sep 14, 2026, 09:42 UTC

1 27744U 91009CZ  26257.40425998 -.00000034  00000-0 -18068-3 0  9991
2 27744  74.0523 130.4274 0175455 184.9337 229.0460 12.18610051476487

Отслеживайте SL-8 DEB в реальном времени с AllMySat

Download on the App Store